owner,sensor,date,latitude,longitude,air_pressure(mBar),qcFlag 
COMPS,ioos:station:USF.COMPS:C10:1,2017-06-01T00:05:00Z,27.1690,-82.9260,1015.68,1111122 
COMPS,ioos:station:USF.COMPS:C10:1,2017-06-01T00:35:00Z,27.1690,-82.9260,1015.82,1111122 
COMPS,ioos:station:USF.COMPS:C10:1,2017-06-01T01:05:00Z,27.1690,-82.9260,1015.97,1111122 
COMPS,ioos:station:USF.COMPS:C10:1,2017-06-01T01:35:00Z,27.1690,-82.9260,1016.38,1111122 
COMPS,ioos:station:USF.COMPS:C10:1,2017-06-01T07:05:00Z,27.1690,-82.9260,1015.85,1111122 
COMPS,ioos:station:USF.COMPS:C10:1,2017-06-01T07:35:00Z,27.1690,-82.9260,1015.87,1111122 
COMPS,ioos:station:USF.COMPS:C10:1,2017-06-01T08:05:00Z,27.1690,-82.9260,1015.54,1111122 
COMPS,ioos:station:USF.COMPS:C10:1,2017-06-01T08:35:00Z,27.1690,-82.9260,1015.47,1111122 
COMPS,ioos:station:USF.COMPS:C10:1,2017-06-01T09:05:00Z,27.1690,-82.9260,1015.58,1111122 
COMPS,ioos:station:USF.COMPS:C10:1,2017-06-01T09:35:00Z,27.1690,-82.9260,1015.67,1111122 
COMPS,ioos:station:USF.COMPS:C10:1,2017-06-01T10:05:00Z,27.1690,-82.9260,1016.01,1111122 
COMPS,ioos:station:USF.COMPS:C10:1,2017-06-01T10:35:00Z,27.1690,-82.9260,1016.29,1111122 
COMPS,ioos:station:USF.COMPS:C10:1,2017-06-01T11:05:00Z,27.1690,-82.9260,1016.3,1111122 
COMPS,ioos:station:USF.COMPS:C10:1,2017-06-01T11:35:00Z,27.1690,-82.9260,1016.29,1111122 
COMPS,ioos:station:USF.COMPS:C10:1,2017-06-01T12:05:00Z,27.1690,-82.9260,1016.35,1111122 
COMPS,ioos:station:USF.COMPS:C10:1,2017-06-01T12:35:00Z,27.1690,-82.9260,1016.37,1111122 
COMPS,ioos:station:USF.COMPS:C10:1,2017-06-01T13:05:00Z,27.1690,-82.9260,1016.52,1111122 
COMPS,ioos:station:USF.COMPS:C10:1,2017-06-01T13:35:00Z,27.1690,-82.9260,1016.85,1111122 
COMPS,ioos:station:USF.COMPS:C10:1,2017-06-01T14:05:00Z,27.1690,-82.9260,1016.88,1111122 
COMPS,ioos:station:USF.COMPS:C10:1,2017-06-01T14:35:00Z,27.1690,-82.9260,1016.9,1111122 
COMPS,ioos:station:USF.COMPS:C10:1,2017-06-01T15:05:00Z,27.1690,-82.9260,1016.85,1111122 
COMPS,ioos:station:USF.COMPS:C10:1,2017-06-01T15:35:00Z,27.1690,-82.9260,1016.99,1111122 
COMPS,ioos:station:USF.COMPS:C10:1,2017-06-01T16:05:00Z,27.1690,-82.9260,1016.89,1111122 
COMPS,ioos:station:USF.COMPS:C10:1,2017-06-01T16:35:00Z,27.1690,-82.9260,1016.8,1111122 
COMPS,ioos:station:USF.COMPS:C10:1,2017-06-01T17:05:00Z,27.1690,-82.9260,1016.63,1111122 
COMPS,ioos:station:USF.COMPS:C10:1,2017-06-01T17:35:00Z,27.1690,-82.9260,1016.06,1111122 
COMPS,ioos:station:USF.COMPS:C10:1,2017-06-01T18:05:00Z,27.1690,-82.9260,1015.81,1111122 
COMPS,ioos:station:USF.COMPS:C10:1,2017-06-01T18:35:00Z,27.1690,-82.9260,1015.55,1111122 
COMPS,ioos:station:USF.COMPS:C10:1,2017-06-01T19:05:00Z,27.1690,-82.9260,1015.51,1111122 
COMPS,ioos:station:USF.COMPS:C10:1,2017-06-01T19:35:00Z,27.1690,-82.9260,1015.04,1111122 
COMPS,ioos:station:USF.COMPS:C10:1,2017-06-01T20:05:00Z,27.1690,-82.9260,1014.5,1111122 
COMPS,ioos:station:USF.COMPS:C10:1,2017-06-01T20:35:00Z,27.1690,-82.9260,1013.99,1111122 
COMPS,ioos:station:USF.COMPS:C10:1,2017-06-01T21:05:00Z,27.1690,-82.9260,1013.71,1111122 
COMPS,ioos:station:USF.COMPS:C10:1,2017-06-01T21:35:00Z,27.1690,-82.9260,1013.55,1111122 
COMPS,ioos:station:USF.COMPS:C10:1,2017-06-01T22:05:00Z,27.1690,-82.9260,1013.55,1111122 
COMPS,ioos:station:USF.COMPS:C10:1,2017-06-01T22:35:00Z,27.1690,-82.9260,1013.62,1111122 
COMPS,ioos:station:USF.COMPS:C10:1,2017-06-01T23:05:00Z,27.1690,-82.9260,1013.75,1111122 
COMPS,ioos:station:USF.COMPS:C10:1,2017-06-01T23:35:00Z,27.1690,-82.9260,1013.98,1111122 
COMPS,ioos:station:USF.COMPS:C10:1,2017-06-02T00:05:00Z,27.1690,-82.9260,1014.44,1111122 
COMPS,ioos:station:USF.COMPS:C10:1,2017-06-02T00:35:00Z,27.1690,-82.9260,1014.87,1111122 
COMPS,ioos:station:USF.COMPS:C10:1,2017-06-02T01:05:00Z,27.1690,-82.9260,1015.41,1111122 
COMPS,ioos:station:USF.COMPS:C10:1,2017-06-02T01:35:00Z,27.1690,-82.9260,1015.47,1111122 
COMPS,ioos:station:USF.COMPS:C10:1,2017-06-02T02:05:00Z,27.1690,-82.9260,1015.51,1111122 
COMPS,ioos:station:USF.COMPS:C10:1,2017-06-02T02:35:00Z,27.1690,-82.9260,1015.77,1111122 
COMPS,ioos:station:USF.COMPS:C10:1,2017-06-02T03:05:00Z,27.1690,-82.9260,1015.81,1111122 
COMPS,ioos:station:USF.COMPS:C10:1,2017-06-02T03:35:00Z,27.1690,-82.9260,1015.9,1111122 
COMPS,ioos:station:USF.COMPS:C10:1,2017-06-02T06:05:00Z,27.1690,-82.9260,1014.46,1111122 
COMPS,ioos:station:USF.COMPS:C10:1,2017-06-02T06:35:00Z,27.1690,-82.9260,1014.39,1111122 
COMPS,ioos:station:USF.COMPS:C10:1,2017-06-02T07:05:00Z,27.1690,-82.9260,1014.03,1111122 
COMPS,ioos:station:USF.COMPS:C10:1,2017-06-02T07:35:00Z,27.1690,-82.9260,1013.91,1111122 
COMPS,ioos:station:USF.COMPS:C10:1,2017-06-02T08:05:00Z,27.1690,-82.9260,1014.18,1111122 
COMPS,ioos:station:USF.COMPS:C10:1,2017-06-02T08:35:00Z,27.1690,-82.9260,1014.12,1111122 
COMPS,ioos:station:USF.COMPS:C10:1,2017-06-02T09:05:00Z,27.1690,-82.9260,1014.09,1111122 
COMPS,ioos:station:USF.COMPS:C10:1,2017-06-02T09:35:00Z,27.1690,-82.9260,1014.05,1111122 
COMPS,ioos:station:USF.COMPS:C10:1,2017-06-02T10:05:00Z,27.1690,-82.9260,1014.03,1111122 
COMPS,ioos:station:USF.COMPS:C10:1,2017-06-02T10:35:00Z,27.1690,-82.9260,1014.08,1111122 
COMPS,ioos:station:USF.COMPS:C10:1,2017-06-02T11:05:00Z,27.1690,-82.9260,1014.56,1111122 
COMPS,ioos:station:USF.COMPS:C10:1,2017-06-02T11:35:00Z,27.1690,-82.9260,1015.14,1111122 
COMPS,ioos:station:USF.COMPS:C10:1,2017-06-02T12:05:00Z,27.1690,-82.9260,1015.31,1111122 
COMPS,ioos:station:USF.COMPS:C10:1,2017-06-02T12:35:00Z,27.1690,-82.9260,1015.64,1111122 
COMPS,ioos:station:USF.COMPS:C10:1,2017-06-02T13:05:00Z,27.1690,-82.9260,1016.0,1111122 
COMPS,ioos:station:USF.COMPS:C10:1,2017-06-02T13:35:00Z,27.1690,-82.9260,1016.32,1111122 
COMPS,ioos:station:USF.COMPS:C10:1,2017-06-02T14:05:00Z,27.1690,-82.9260,1015.95,1111122 
COMPS,ioos:station:USF.COMPS:C10:1,2017-06-02T14:35:00Z,27.1690,-82.9260,1015.88,1111122 
COMPS,ioos:station:USF.COMPS:C10:1,2017-06-02T15:05:00Z,27.1690,-82.9260,1016.04,1111122 
COMPS,ioos:station:USF.COMPS:C10:1,2017-06-02T15:35:00Z,27.1690,-82.9260,1016.46,1111122 
COMPS,ioos:station:USF.COMPS:C10:1,2017-06-02T16:05:00Z,27.1690,-82.9260,1016.3,1111122 
COMPS,ioos:station:USF.COMPS:C10:1,2017-06-02T16:35:00Z,27.1690,-82.9260,1016.78,1111122 
COMPS,ioos:station:USF.COMPS:C10:1,2017-06-02T17:05:00Z,27.1690,-82.9260,1016.35,1111122 
COMPS,ioos:station:USF.COMPS:C10:1,2017-06-02T17:35:00Z,27.1690,-82.9260,1015.64,1111122 
COMPS,ioos:station:USF.COMPS:C10:1,2017-06-02T18:05:00Z,27.1690,-82.9260,1014.68,1111122 
COMPS,ioos:station:USF.COMPS:C10:1,2017-06-02T18:35:00Z,27.1690,-82.9260,1014.28,1111122 
COMPS,ioos:station:USF.COMPS:C10:1,2017-06-02T19:05:00Z,27.1690,-82.9260,1014.25,1111122 
COMPS,ioos:station:USF.COMPS:C10:1,2017-06-02T19:35:00Z,27.1690,-82.9260,1014.34,1111122 
COMPS,ioos:station:USF.COMPS:C10:1,2017-06-02T20:05:00Z,27.1690,-82.9260,1014.0,1111122 
COMPS,ioos:station:USF.COMPS:C10:1,2017-06-02T20:35:00Z,27.1690,-82.9260,1013.99,1111122 
COMPS,ioos:station:USF.COMPS:C10:1,2017-06-02T21:05:00Z,27.1690,-82.9260,1013.96,1111122 
COMPS,ioos:station:USF.COMPS:C10:1,2017-06-02T21:35:00Z,27.1690,-82.9260,1013.93,1111122 
COMPS,ioos:station:USF.COMPS:C10:1,2017-06-02T22:05:00Z,27.1690,-82.9260,1013.71,1111122 
COMPS,ioos:station:USF.COMPS:C10:1,2017-06-02T22:35:00Z,27.1690,-82.9260,1013.75,1111122 
COMPS,ioos:station:USF.COMPS:C10:1,2017-06-03T02:05:00Z,27.1690,-82.9260,1014.57,1111122 
COMPS,ioos:station:USF.COMPS:C10:1,2017-06-03T02:35:00Z,27.1690,-82.9260,1014.64,1111122 
COMPS,ioos:station:USF.COMPS:C10:1,2017-06-03T03:05:00Z,27.1690,-82.9260,1014.96,1111122 
COMPS,ioos:station:USF.COMPS:C10:1,2017-06-03T03:35:00Z,27.1690,-82.9260,1015.03,1111122 
COMPS,ioos:station:USF.COMPS:C10:1,2017-06-03T04:05:00Z,27.1690,-82.9260,1014.87,1111122 
COMPS,ioos:station:USF.COMPS:C10:1,2017-06-03T04:35:00Z,27.1690,-82.9260,1014.77,1111122 
COMPS,ioos:station:USF.COMPS:C10:1,2017-06-03T05:05:00Z,27.1690,-82.9260,1014.53,1111122 
COMPS,ioos:station:USF.COMPS:C10:1,2017-06-03T05:35:00Z,27.1690,-82.9260,1014.38,1111122 
COMPS,ioos:station:USF.COMPS:C10:1,2017-06-03T06:05:00Z,27.1690,-82.9260,1014.0,1111122 
COMPS,ioos:station:USF.COMPS:C10:1,2017-06-03T06:35:00Z,27.1690,-82.9260,1013.46,1111122 
COMPS,ioos:station:USF.COMPS:C10:1,2017-06-03T07:05:00Z,27.1690,-82.9260,1013.27,1111122 
COMPS,ioos:station:USF.COMPS:C10:1,2017-06-03T07:35:00Z,27.1690,-82.9260,1013.11,1111122 
COMPS,ioos:station:USF.COMPS:C10:1,2017-06-03T08:05:00Z,27.1690,-82.9260,1013.12,1111122 
COMPS,ioos:station:USF.COMPS:C10:1,2017-06-03T08:35:00Z,27.1690,-82.9260,1013.13,1111122 
COMPS,ioos:station:USF.COMPS:C10:1,2017-06-03T09:05:00Z,27.1690,-82.9260,1013.26,1111122 
COMPS,ioos:station:USF.COMPS:C10:1,2017-06-03T09:35:00Z,27.1690,-82.9260,1013.31,1111122 
COMPS,ioos:station:USF.COMPS:C10:1,2017-06-03T10:05:00Z,27.1690,-82.9260,1013.5,1111122 
COMPS,ioos:station:USF.COMPS:C10:1,2017-06-03T10:35:00Z,27.1690,-82.9260,1013.79,1111122 
COMPS,ioos:station:USF.COMPS:C10:1,2017-06-03T11:05:00Z,27.1690,-82.9260,1014.19,1111122 
COMPS,ioos:station:USF.COMPS:C10:1,2017-06-03T11:35:00Z,27.1690,-82.9260,1014.54,1111122 
COMPS,ioos:station:USF.COMPS:C10:1,2017-06-03T12:05:00Z,27.1690,-82.9260,1014.77,1111122 
COMPS,ioos:station:USF.COMPS:C10:1,2017-06-03T12:35:00Z,27.1690,-82.9260,1014.93,1111122 
COMPS,ioos:station:USF.COMPS:C10:1,2017-06-03T13:05:00Z,27.1690,-82.9260,1014.91,1111122 
COMPS,ioos:station:USF.COMPS:C10:1,2017-06-03T13:35:00Z,27.1690,-82.9260,1014.93,1111122 
COMPS,ioos:station:USF.COMPS:C10:1,2017-06-03T14:05:00Z,27.1690,-82.9260,1015.12,1111122 
COMPS,ioos:station:USF.COMPS:C10:1,2017-06-03T14:35:00Z,27.1690,-82.9260,1015.11,1111122 
COMPS,ioos:station:USF.COMPS:C10:1,2017-06-03T15:05:00Z,27.1690,-82.9260,1015.17,1111122 
COMPS,ioos:station:USF.COMPS:C10:1,2017-06-03T15:35:00Z,27.1690,-82.9260,1015.43,1111122 
COMPS,ioos:station:USF.COMPS:C10:1,2017-06-03T16:05:00Z,27.1690,-82.9260,1015.47,1111122 
COMPS,ioos:station:USF.COMPS:C10:1,2017-06-03T16:35:00Z,27.1690,-82.9260,1015.09,1111122 
COMPS,ioos:station:USF.COMPS:C10:1,2017-06-03T17:05:00Z,27.1690,-82.9260,1014.91,1111122 
COMPS,ioos:station:USF.COMPS:C10:1,2017-06-03T17:35:00Z,27.1690,-82.9260,1014.33,1111122 
COMPS,ioos:station:USF.COMPS:C10:1,2017-06-03T18:05:00Z,27.1690,-82.9260,1014.11,1111122 
COMPS,ioos:station:USF.COMPS:C10:1,2017-06-03T18:35:00Z,27.1690,-82.9260,1014.08,1111122 
COMPS,ioos:station:USF.COMPS:C10:1,2017-06-03T19:05:00Z,27.1690,-82.9260,1014.02,1111122 
COMPS,ioos:station:USF.COMPS:C10:1,2017-06-03T19:35:00Z,27.1690,-82.9260,1013.62,1111122 
COMPS,ioos:station:USF.COMPS:C10:1,2017-06-03T20:05:00Z,27.1690,-82.9260,1013.11,1111122 
COMPS,ioos:station:USF.COMPS:C10:1,2017-06-03T20:35:00Z,27.1690,-82.9260,1012.74,1111122 
COMPS,ioos:station:USF.COMPS:C10:1,2017-06-03T21:05:00Z,27.1690,-82.9260,1012.64,1111122 
COMPS,ioos:station:USF.COMPS:C10:1,2017-06-03T21:35:00Z,27.1690,-82.9260,1012.65,1111122 
COMPS,ioos:station:USF.COMPS:C10:1,2017-06-03T22:05:00Z,27.1690,-82.9260,1012.89,1111122 
COMPS,ioos:station:USF.COMPS:C10:1,2017-06-03T22:35:00Z,27.1690,-82.9260,1013.04,1111122 
COMPS,ioos:station:USF.COMPS:C10:1,2017-06-03T23:05:00Z,27.1690,-82.9260,1012.94,1111122 
COMPS,ioos:station:USF.COMPS:C10:1,2017-06-03T23:35:00Z,27.1690,-82.9260,1013.13,1111122 
COMPS,ioos:station:USF.COMPS:C10:1,2017-06-04T00:05:00Z,27.1690,-82.9260,1013.55,1111122 
COMPS,ioos:station:USF.COMPS:C10:1,2017-06-04T00:35:00Z,27.1690,-82.9260,1013.6,1111122 
COMPS,ioos:station:USF.COMPS:C10:1,2017-06-04T01:05:00Z,27.1690,-82.9260,1013.64,1111122 
COMPS,ioos:station:USF.COMPS:C10:1,2017-06-04T01:35:00Z,27.1690,-82.9260,1013.65,1111122 
COMPS,ioos:station:USF.COMPS:C10:1,2017-06-04T02:05:00Z,27.1690,-82.9260,1013.85,1111122 
COMPS,ioos:station:USF.COMPS:C10:1,2017-06-04T02:35:00Z,27.1690,-82.9260,1014.58,1111122 
COMPS,ioos:station:USF.COMPS:C10:1,2017-06-04T03:05:00Z,27.1690,-82.9260,1014.67,1111122 
COMPS,ioos:station:USF.COMPS:C10:1,2017-06-04T03:35:00Z,27.1690,-82.9260,1014.56,1111122 
COMPS,ioos:station:USF.COMPS:C10:1,2017-06-04T04:05:00Z,27.1690,-82.9260,1014.65,1111122 
COMPS,ioos:station:USF.COMPS:C10:1,2017-06-04T04:35:00Z,27.1690,-82.9260,1014.76,1111122 
COMPS,ioos:station:USF.COMPS:C10:1,2017-06-04T06:05:00Z,27.1690,-82.9260,1013.42,1111122 
COMPS,ioos:station:USF.COMPS:C10:1,2017-06-04T06:35:00Z,27.1690,-82.9260,1013.16,1111122 
COMPS,ioos:station:USF.COMPS:C10:1,2017-06-04T07:05:00Z,27.1690,-82.9260,1012.88,1111122 
COMPS,ioos:station:USF.COMPS:C10:1,2017-06-04T07:35:00Z,27.1690,-82.9260,1012.68,1111122 
COMPS,ioos:station:USF.COMPS:C10:1,2017-06-04T08:05:00Z,27.1690,-82.9260,1012.46,1111122 
COMPS,ioos:station:USF.COMPS:C10:1,2017-06-04T08:35:00Z,27.1690,-82.9260,1012.38,1111122 
COMPS,ioos:station:USF.COMPS:C10:1,2017-06-04T09:05:00Z,27.1690,-82.9260,1012.33,1111122 
COMPS,ioos:station:USF.COMPS:C10:1,2017-06-04T09:35:00Z,27.1690,-82.9260,1012.3,1111122 
COMPS,ioos:station:USF.COMPS:C10:1,2017-06-04T10:05:00Z,27.1690,-82.9260,1012.49,1111122 
COMPS,ioos:station:USF.COMPS:C10:1,2017-06-04T10:35:00Z,27.1690,-82.9260,1012.7,1111122 
COMPS,ioos:station:USF.COMPS:C10:1,2017-06-04T11:05:00Z,27.1690,-82.9260,1012.72,1111122 
COMPS,ioos:station:USF.COMPS:C10:1,2017-06-04T11:35:00Z,27.1690,-82.9260,1012.97,1111122 
COMPS,ioos:station:USF.COMPS:C10:1,2017-06-04T12:05:00Z,27.1690,-82.9260,1013.1,1111122 
COMPS,ioos:station:USF.COMPS:C10:1,2017-06-04T12:35:00Z,27.1690,-82.9260,1013.37,1111122 
COMPS,ioos:station:USF.COMPS:C10:1,2017-06-04T13:05:00Z,27.1690,-82.9260,1013.62,1111122 
COMPS,ioos:station:USF.COMPS:C10:1,2017-06-04T13:35:00Z,27.1690,-82.9260,1013.92,1111122 
COMPS,ioos:station:USF.COMPS:C10:1,2017-06-04T14:05:00Z,27.1690,-82.9260,1013.65,1111122 
COMPS,ioos:station:USF.COMPS:C10:1,2017-06-04T14:35:00Z,27.1690,-82.9260,1013.63,1111122 
COMPS,ioos:station:USF.COMPS:C10:1,2017-06-04T16:05:00Z,27.1690,-82.9260,1013.88,1111122 
COMPS,ioos:station:USF.COMPS:C10:1,2017-06-04T16:35:00Z,27.1690,-82.9260,1013.92,1111122 
COMPS,ioos:station:USF.COMPS:C10:1,2017-06-04T17:05:00Z,27.1690,-82.9260,1013.77,1111122 
COMPS,ioos:station:USF.COMPS:C10:1,2017-06-04T17:35:00Z,27.1690,-82.9260,1013.26,1111122 
COMPS,ioos:station:USF.COMPS:C10:1,2017-06-04T18:05:00Z,27.1690,-82.9260,1013.05,1111122 
COMPS,ioos:station:USF.COMPS:C10:1,2017-06-04T18:35:00Z,27.1690,-82.9260,1012.72,1111122 
COMPS,ioos:station:USF.COMPS:C10:1,2017-06-04T19:05:00Z,27.1690,-82.9260,1012.42,1111122 
COMPS,ioos:station:USF.COMPS:C10:1,2017-06-04T19:35:00Z,27.1690,-82.9260,1012.06,1111122 
COMPS,ioos:station:USF.COMPS:C10:1,2017-06-04T20:05:00Z,27.1690,-82.9260,1011.83,1111122 
COMPS,ioos:station:USF.COMPS:C10:1,2017-06-04T20:35:00Z,27.1690,-82.9260,1011.34,1111122 
COMPS,ioos:station:USF.COMPS:C10:1,2017-06-04T21:05:00Z,27.1690,-82.9260,1011.16,1111122 
COMPS,ioos:station:USF.COMPS:C10:1,2017-06-04T21:35:00Z,27.1690,-82.9260,1011.12,1111122 
COMPS,ioos:station:USF.COMPS:C10:1,2017-06-04T22:05:00Z,27.1690,-82.9260,1011.26,1111122 
COMPS,ioos:station:USF.COMPS:C10:1,2017-06-04T22:35:00Z,27.1690,-82.9260,1011.38,1111122 
COMPS,ioos:station:USF.COMPS:C10:1,2017-06-04T23:05:00Z,27.1690,-82.9260,1011.33,1111122 
COMPS,ioos:station:USF.COMPS:C10:1,2017-06-04T23:35:00Z,27.1690,-82.9260,1011.31,1111122 
COMPS,ioos:station:USF.COMPS:C10:1,2017-06-05T00:05:00Z,27.1690,-82.9260,1011.39,1111122 
COMPS,ioos:station:USF.COMPS:C10:1,2017-06-05T00:35:00Z,27.1690,-82.9260,1011.74,1111122 
COMPS,ioos:station:USF.COMPS:C10:1,2017-06-05T01:05:00Z,27.1690,-82.9260,1011.88,1111122 
COMPS,ioos:station:USF.COMPS:C10:1,2017-06-05T01:35:00Z,27.1690,-82.9260,1012.2,1111122 
COMPS,ioos:station:USF.COMPS:C10:1,2017-06-05T02:05:00Z,27.1690,-82.9260,1012.09,1111122 
COMPS,ioos:station:USF.COMPS:C10:1,2017-06-05T02:35:00Z,27.1690,-82.9260,1012.2,1111122 
COMPS,ioos:station:USF.COMPS:C10:1,2017-06-05T03:05:00Z,27.1690,-82.9260,1012.21,1111122 
COMPS,ioos:station:USF.COMPS:C10:1,2017-06-05T03:35:00Z,27.1690,-82.9260,1011.97,1111122 
COMPS,ioos:station:USF.COMPS:C10:1,2017-06-05T04:05:00Z,27.1690,-82.9260,1011.82,1111122 
COMPS,ioos:station:USF.COMPS:C10:1,2017-06-05T04:35:00Z,27.1690,-82.9260,1011.82,1111122 
COMPS,ioos:station:USF.COMPS:C10:1,2017-06-05T05:05:00Z,27.1690,-82.9260,1011.61,1111122 
COMPS,ioos:station:USF.COMPS:C10:1,2017-06-05T05:35:00Z,27.1690,-82.9260,1011.57,1111122 
COMPS,ioos:station:USF.COMPS:C10:1,2017-06-05T06:05:00Z,27.1690,-82.9260,1011.48,1111122 
COMPS,ioos:station:USF.COMPS:C10:1,2017-06-05T06:35:00Z,27.1690,-82.9260,1011.18,1111122 
COMPS,ioos:station:USF.COMPS:C10:1,2017-06-05T07:05:00Z,27.1690,-82.9260,1011.07,1111122 
COMPS,ioos:station:USF.COMPS:C10:1,2017-06-05T07:35:00Z,27.1690,-82.9260,1010.7,1111122 
COMPS,ioos:station:USF.COMPS:C10:1,2017-06-05T08:05:00Z,27.1690,-82.9260,1010.61,1111122 
COMPS,ioos:station:USF.COMPS:C10:1,2017-06-05T08:35:00Z,27.1690,-82.9260,1010.7,1111122 
COMPS,ioos:station:USF.COMPS:C10:1,2017-06-05T09:05:00Z,27.1690,-82.9260,1010.51,1111122 
COMPS,ioos:station:USF.COMPS:C10:1,2017-06-05T09:35:00Z,27.1690,-82.9260,1010.51,1111122 
COMPS,ioos:station:USF.COMPS:C10:1,2017-06-05T10:05:00Z,27.1690,-82.9260,1010.81,1111122 
COMPS,ioos:station:USF.COMPS:C10:1,2017-06-05T10:35:00Z,27.1690,-82.9260,1011.15,1111122 
COMPS,ioos:station:USF.COMPS:C10:1,2017-06-05T11:05:00Z,27.1690,-82.9260,1011.28,1111122 
COMPS,ioos:station:USF.COMPS:C10:1,2017-06-05T11:35:00Z,27.1690,-82.9260,1011.22,1111122 
COMPS,ioos:station:USF.COMPS:C10:1,2017-06-05T12:05:00Z,27.1690,-82.9260,1011.74,1111122 
COMPS,ioos:station:USF.COMPS:C10:1,2017-06-05T12:35:00Z,27.1690,-82.9260,1012.28,1111122 
COMPS,ioos:station:USF.COMPS:C10:1,2017-06-05T13:05:00Z,27.1690,-82.9260,1012.28,1111122 
COMPS,ioos:station:USF.COMPS:C10:1,2017-06-05T13:35:00Z,27.1690,-82.9260,1012.27,1111122 
COMPS,ioos:station:USF.COMPS:C10:1,2017-06-05T14:05:00Z,27.1690,-82.9260,1012.23,1111122 
COMPS,ioos:station:USF.COMPS:C10:1,2017-06-05T14:35:00Z,27.1690,-82.9260,1012.22,1111122 
COMPS,ioos:station:USF.COMPS:C10:1,2017-06-05T15:05:00Z,27.1690,-82.9260,1011.84,1111122 
COMPS,ioos:station:USF.COMPS:C10:1,2017-06-05T15:35:00Z,27.1690,-82.9260,1012.21,1111122 
COMPS,ioos:station:USF.COMPS:C10:1,2017-06-05T16:05:00Z,27.1690,-82.9260,1012.19,1111122 
COMPS,ioos:station:USF.COMPS:C10:1,2017-06-05T16:35:00Z,27.1690,-82.9260,1011.84,1111122 
COMPS,ioos:station:USF.COMPS:C10:1,2017-06-05T17:05:00Z,27.1690,-82.9260,1011.57,1111122 
COMPS,ioos:station:USF.COMPS:C10:1,2017-06-05T17:35:00Z,27.1690,-82.9260,1011.84,1111122 
COMPS,ioos:station:USF.COMPS:C10:1,2017-06-05T18:05:00Z,27.1690,-82.9260,1012.05,1111122 
COMPS,ioos:station:USF.COMPS:C10:1,2017-06-05T18:35:00Z,27.1690,-82.9260,1012.02,1111122 
COMPS,ioos:station:USF.COMPS:C10:1,2017-06-05T19:05:00Z,27.1690,-82.9260,1011.88,1111122 
COMPS,ioos:station:USF.COMPS:C10:1,2017-06-05T19:35:00Z,27.1690,-82.9260,1011.2,1111122 
COMPS,ioos:station:USF.COMPS:C10:1,2017-06-05T20:05:00Z,27.1690,-82.9260,1010.78,1111122 
COMPS,ioos:station:USF.COMPS:C10:1,2017-06-05T20:35:00Z,27.1690,-82.9260,1010.44,1111122 
COMPS,ioos:station:USF.COMPS:C10:1,2017-06-05T21:05:00Z,27.1690,-82.9260,1010.14,1111122 
COMPS,ioos:station:USF.COMPS:C10:1,2017-06-05T21:35:00Z,27.1690,-82.9260,1009.81,1111122 
COMPS,ioos:station:USF.COMPS:C10:1,2017-06-05T22:05:00Z,27.1690,-82.9260,1009.94,1111122 
COMPS,ioos:station:USF.COMPS:C10:1,2017-06-05T22:35:00Z,27.1690,-82.9260,1009.91,1111122 
COMPS,ioos:station:USF.COMPS:C10:1,2017-06-05T23:05:00Z,27.1690,-82.9260,1009.49,1111122 
COMPS,ioos:station:USF.COMPS:C10:1,2017-06-05T23:35:00Z,27.1690,-82.9260,1009.6,1111122 
COMPS,ioos:station:USF.COMPS:C10:1,2017-06-06T00:05:00Z,27.1690,-82.9260,1009.61,1111122 
COMPS,ioos:station:USF.COMPS:C10:1,2017-06-06T00:35:00Z,27.1690,-82.9260,1009.6,1111122 
COMPS,ioos:station:USF.COMPS:C10:1,2017-06-06T01:05:00Z,27.1690,-82.9260,1009.74,1111122 
COMPS,ioos:station:USF.COMPS:C10:1,2017-06-06T01:35:00Z,27.1690,-82.9260,1009.76,1111122 
COMPS,ioos:station:USF.COMPS:C10:1,2017-06-06T02:05:00Z,27.1690,-82.9260,1009.53,1111122 
COMPS,ioos:station:USF.COMPS:C10:1,2017-06-06T02:35:00Z,27.1690,-82.9260,1009.56,1111122 
COMPS,ioos:station:USF.COMPS:C10:1,2017-06-06T03:05:00Z,27.1690,-82.9260,1010.01,1111122 
COMPS,ioos:station:USF.COMPS:C10:1,2017-06-06T03:35:00Z,27.1690,-82.9260,1009.78,1111122 
COMPS,ioos:station:USF.COMPS:C10:1,2017-06-06T04:05:00Z,27.1690,-82.9260,1009.2,1111122 
COMPS,ioos:station:USF.COMPS:C10:1,2017-06-06T04:35:00Z,27.1690,-82.9260,1009.04,1111122 
COMPS,ioos:station:USF.COMPS:C10:1,2017-06-06T05:05:00Z,27.1690,-82.9260,1009.66,1111122 
COMPS,ioos:station:USF.COMPS:C10:1,2017-06-06T05:35:00Z,27.1690,-82.9260,1009.64,1111122 
COMPS,ioos:station:USF.COMPS:C10:1,2017-06-06T06:05:00Z,27.1690,-82.9260,1009.18,1111122 
COMPS,ioos:station:USF.COMPS:C10:1,2017-06-06T06:35:00Z,27.1690,-82.9260,1008.34,1111122 
COMPS,ioos:station:USF.COMPS:C10:1,2017-06-06T07:05:00Z,27.1690,-82.9260,1007.84,1111122 
COMPS,ioos:station:USF.COMPS:C10:1,2017-06-06T07:35:00Z,27.1690,-82.9260,1006.82,1111122 
COMPS,ioos:station:USF.COMPS:C10:1,2017-06-06T08:05:00Z,27.1690,-82.9260,1006.54,1111122 
COMPS,ioos:station:USF.COMPS:C10:1,2017-06-06T08:35:00Z,27.1690,-82.9260,1006.88,1111122 
COMPS,ioos:station:USF.COMPS:C10:1,2017-06-06T09:05:00Z,27.1690,-82.9260,1006.82,1111122 
COMPS,ioos:station:USF.COMPS:C10:1,2017-06-06T09:35:00Z,27.1690,-82.9260,1006.73,1111122 
COMPS,ioos:station:USF.COMPS:C10:1,2017-06-06T10:05:00Z,27.1690,-82.9260,1006.93,1111122 
COMPS,ioos:station:USF.COMPS:C10:1,2017-06-06T10:35:00Z,27.1690,-82.9260,1007.23,1111122 
COMPS,ioos:station:USF.COMPS:C10:1,2017-06-06T11:05:00Z,27.1690,-82.9260,1007.36,1111122 
COMPS,ioos:station:USF.COMPS:C10:1,2017-06-06T11:35:00Z,27.1690,-82.9260,1007.76,1111122 
COMPS,ioos:station:USF.COMPS:C10:1,2017-06-06T12:05:00Z,27.1690,-82.9260,1007.69,1111122 
COMPS,ioos:station:USF.COMPS:C10:1,2017-06-06T12:35:00Z,27.1690,-82.9260,1007.76,1111122 
COMPS,ioos:station:USF.COMPS:C10:1,2017-06-06T13:05:00Z,27.1690,-82.9260,1007.79,1111122 
COMPS,ioos:station:USF.COMPS:C10:1,2017-06-06T13:35:00Z,27.1690,-82.9260,1007.91,1111122 
COMPS,ioos:station:USF.COMPS:C10:1,2017-06-06T14:05:00Z,27.1690,-82.9260,1008.48,1111122 
COMPS,ioos:station:USF.COMPS:C10:1,2017-06-06T14:35:00Z,27.1690,-82.9260,1008.4,1111122 
COMPS,ioos:station:USF.COMPS:C10:1,2017-06-06T15:05:00Z,27.1690,-82.9260,1007.76,1111122 
COMPS,ioos:station:USF.COMPS:C10:1,2017-06-06T15:35:00Z,27.1690,-82.9260,1007.78,1111122 
COMPS,ioos:station:USF.COMPS:C10:1,2017-06-06T16:05:00Z,27.1690,-82.9260,1007.29,1111122 
COMPS,ioos:station:USF.COMPS:C10:1,2017-06-06T16:35:00Z,27.1690,-82.9260,1006.85,1111122 
COMPS,ioos:station:USF.COMPS:C10:1,2017-06-06T17:05:00Z,27.1690,-82.9260,1006.61,1111122 
COMPS,ioos:station:USF.COMPS:C10:1,2017-06-06T17:35:00Z,27.1690,-82.9260,1006.42,1111122 
COMPS,ioos:station:USF.COMPS:C10:1,2017-06-06T18:05:00Z,27.1690,-82.9260,1005.91,1111122 
COMPS,ioos:station:USF.COMPS:C10:1,2017-06-06T18:35:00Z,27.1690,-82.9260,1006.37,1111122 
COMPS,ioos:station:USF.COMPS:C10:1,2017-06-06T19:05:00Z,27.1690,-82.9260,1007.26,1111122 
COMPS,ioos:station:USF.COMPS:C10:1,2017-06-06T19:35:00Z,27.1690,-82.9260,1006.86,1111122 
COMPS,ioos:station:USF.COMPS:C10:1,2017-06-06T20:05:00Z,27.1690,-82.9260,1006.21,1111122 
COMPS,ioos:station:USF.COMPS:C10:1,2017-06-06T20:35:00Z,27.1690,-82.9260,1006.23,1111122 
COMPS,ioos:station:USF.COMPS:C10:1,2017-06-06T21:05:00Z,27.1690,-82.9260,1005.66,1111122 
COMPS,ioos:station:USF.COMPS:C10:1,2017-06-06T21:35:00Z,27.1690,-82.9260,1005.07,1111122 
COMPS,ioos:station:USF.COMPS:C10:1,2017-06-06T22:05:00Z,27.1690,-82.9260,1004.86,1111122 
COMPS,ioos:station:USF.COMPS:C10:1,2017-06-06T22:35:00Z,27.1690,-82.9260,1005.43,1111122 
COMPS,ioos:station:USF.COMPS:C10:1,2017-06-06T23:05:00Z,27.1690,-82.9260,1005.62,1111122 
COMPS,ioos:station:USF.COMPS:C10:1,2017-06-06T23:35:00Z,27.1690,-82.9260,1005.9,1111122 
COMPS,ioos:station:USF.COMPS:C10:1,2017-06-07T00:05:00Z,27.1690,-82.9260,1005.89,1111122 
COMPS,ioos:station:USF.COMPS:C10:1,2017-06-07T00:35:00Z,27.1690,-82.9260,1005.88,1111122 